Flag for Germany Weather past 2 weeks in Heide, Schleswig-Holstein, Germany

Now
52 °F

Cool.


Feels Like: 49 °F
Forecast: 55 / 61 °F
Wind: 8 mph from South

Location: Hohn

Current Time: Aug 23, 2014 at 2:35:47 AM

Latest Report: Aug 23, 2014 at 1:20 AM


Visibility: 4 mi

Pressure: 29.74 "Hg

Humidity: 94%

Dew point: 50 °F

Location of HeideLocation

Historic Weather in Heide — Graph

°F

Heide temperature yesterday

Maximum temperature yesterday: 63 °F (at 2:20 PM)
Minimum temperature yesterday: 52 °F (at 12:20 AM)
Average temperature yesterday: 56 °F

Past Weeks' High & Low Weather Summary

 TemperatureHumidityPressure
High77 °F (Aug 8, 2:20 PM)100% (Aug 8, 3:20 AM)29.98 "Hg (Aug 8, 3:20 AM)
Low48 °F (Aug 21, 12:20 AM)39% (Aug 8, 6:20 PM)29.42 "Hg (Aug 18, 9:20 AM)
Average60 °F78%29.74 "Hg
* Reported Aug 8 1:20 AM — Aug 23 1:20 AM, Heide, Weather by CustomWeather, © 2014

Note: Actual official high and low records may vary slightly from our data, if they occured in-between our weather recording intervals... More about our weather records

Advertising

Heide weather history for previous 24 hours

 ConditionsComfort  
Time TempWeatherWind HumidityBarometerVisibility
1:20 AM
Aug 23
52 °FCool.8 mph94%29.74 "Hg4 mi
12:20 AM52 °FCool.9 mph88%29.74 "Hg4 mi
11:20 PM
Aug 22
54 °FCool.9 mph88%29.77 "Hg3 mi
10:20 PM54 °FCool.8 mph94%29.74 "Hg1 mi
9:20 PM55 °FCool.7 mph88%29.74 "Hg3 mi
8:20 PM57 °FCool.9 mph82%29.74 "Hg4 mi
7:20 PM55 °FCool.13 mph88%29.74 "Hg4 mi
6:20 PM61 °FCool.10 mph63%29.74 "Hg4 mi
5:20 PM63 °FMild.13 mph59%29.74 "Hg4 mi
4:20 PM61 °FCool.9 mph72%29.74 "Hg5 mi
4:02 PM59 °FPartly sunny.12 mph77%29.77 "HgN/A
3:20 PM63 °FPartly sunny.9 mph68%29.77 "HgN/A
2:20 PM63 °FBroken clouds.13 mph64%29.77 "HgN/A
1:20 PM61 °FBroken clouds.13 mph68%29.77 "HgN/A
12:20 PM61 °FBroken clouds.9 mph68%29.77 "HgN/A
11:20 AM59 °FBroken clouds.10 mph72%29.77 "HgN/A
10:20 AM57 °FBroken clouds.10 mph77%29.77 "HgN/A
9:20 AM55 °FLight rain. Partly sunny.10 mph82%29.77 "HgN/A
8:20 AM54 °FPartly sunny.9 mph88%29.80 "HgN/A
7:20 AM52 °FBroken clouds.8 mph88%29.80 "Hg4 mi
6:20 AM52 °FFog.7 mph88%29.80 "Hg3 mi
5:20 AM52 °FPassing clouds.8 mph88%29.80 "Hg3 mi
4:20 AM52 °FCool.7 mph88%29.83 "Hg3 mi
3:20 AM52 °FCool.6 mph88%29.83 "Hg3 mi
2:20 AM52 °FCool.6 mph88%29.86 "Hg4 mi
Weather by CustomWeather, © 2014

See weather overviewHow to use our weather pages